Theta_e
347 346 345 345 348 349 350 350 350 349 348 345 345 345 342 341 338 335 335 339 339 346 349 349 358 358 359 360 362 360 361 362 363 362 363 363 364 358 355 355 355 356 359 361 363 365 367 369 370 370 369 370 371 370 370 370 369 369 367 367 367 368 365 364 361 360 360 360 360 361 361 362 362 362
346 347 346 348 348 350 349 351 349 348 347 344 342 344 344 344 340 339 336 339 342 343 348 350 353 359 359 360 360 360 361 362 362 363 363 363 363 358 355 356 355 354 355 355 357 360 363 365 368 369 370 371 371 371 371 371 371 370 369 369 367 367 366 364 361 359 360 360 360 360 361 361 361 361
347 346 346 348 347 348 346 349 347 343 344 344 347 345 344 344 343 342 341 336 342 344 344 349 355 355 359 360 359 359 361 361 361 362 363 363 362 360 360 356 354 353 353 353 354 357 361 364 366 367 369 369 370 371 371 371 371 371 371 369 369 368 366 362 360 360 360 360 361 360 360 361 361 361
347 345 344 345 347 349 344 344 346 345 342 343 344 345 344 344 344 342 340 339 339 346 346 347 349 352 353 357 357 359 361 362 361 362 363 363 361 362 363 357 353 352 351 351 351 352 355 360 364 366 367 368 369 370 369 370 371 371 371 370 369 368 363 360 360 360 360 360 360 360 360 360 360 359
349 345 344 346 349 350 346 346 347 346 346 347 347 345 343 342 343 341 339 338 340 345 348 347 348 352 352 352 357 357 359 362 362 360 363 364 363 363 363 364 353 351 351 350 350 349 350 353 357 361 364 366 367 368 369 369 369 369 369 368 367 362 359 359 359 360 361 361 360 360 360 360 359 359
349 349 348 349 350 351 350 349 349 349 349 349 347 345 345 343 342 343 339 339 340 340 347 347 350 350 353 349 356 357 357 360 362 362 362 363 364 363 364 364 364 351 350 350 349 349 348 349 352 355 358 361 364 366 367 366 366 364 362 361 359 356 356 356 357 359 360 361 360 360 359 359 358 358
348 347 347 348 349 349 348 349 349 350 349 349 348 347 347 346 345 345 343 340 339 340 342 347 346 348 352 352 354 358 359 361 362 361 360 361 363 363 363 363 364 352 349 349 348 347 347 347 348 350 351 354 357 358 358 358 356 354 353 352 351 350 353 353 352 354 357 359 360 360 359 358 357 357
347 346 347 346 347 348 347 348 348 348 349 348 348 348 348 348 347 347 345 343 339 341 340 345 344 349 350 353 355 357 359 359 360 361 362 363 362 362 363 363 363 358 350 349 348 347 346 345 344 345 346 347 350 350 346 347 347 347 346 346 347 348 349 348 347 348 351 353 354 355 356 356 355 354
347 346 346 346 347 347 346 346 346 347 347 348 348 347 347 348 348 348 348 347 344 342 341 343 347 350 351 354 356 358 356 359 360 361 360 361 360 362 363 364 364 355 351 348 346 346 345 344 343 342 342 342 342 342 342 342 342 342 342 342 342 342 343 343 343 344 344 345 346 346 347 347 347 348
346 346 347 347 348 347 346 346 347 348 347 348 347 346 346 347 348 347 347 347 346 344 343 344 344 347 346 350 354 357 358 355 355 356 359 360 360 359 358 360 363 364 363 362 358 347 344 342 340 341 341 341 340 340 340 339 339 338 338 337 338 339 339 339 340 339 339 339 340 341 341 343 344 344
346 346 347 348 348 347 347 346 346 347 347 346 346 347 347 347 346 346 346 346 345 344 342 343 344 344 348 349 346 353 358 358 356 354 354 354 359 360 359 359 362 363 363 358 354 356 356 351 350 340 339 341 341 341 340 340 340 339 336 333 334 336 336 337 337 337 337 336 336 335 335 338 341 343
345 346 347 347 348 348 348 348 348 348 346 347 345 346 346 346 345 345 346 346 345 343 343 342 342 342 343 346 350 353 354 354 354 354 353 351 354 356 359 359 360 362 363 363 364 357 355 354 351 345 342 341 341 342 341 341 342 341 338 335 334 334 334 334 335 335 335 334 334 332 330 329 331 336
346 346 346 346 347 349 350 351 351 350 349 346 345 347 347 347 346 345 345 345 345 343 342 342 342 340 340 343 345 348 349 349 349 356 354 353 355 357 356 358 361 362 360 361 361 363 365 365 364 362 360 357 347 347 343 346 344 342 339 337 335 335 334 333 332 333 333 333 332 332 330 327 325 328
344 345 345 346 349 348 348 348 349 348 349 349 347 345 343 344 343 343 344 344 343 343 341 340 341 339 339 341 344 344 347 352 355 354 354 352 355 355 353 356 357 360 359 358 358 362 364 362 364 363 362 362 359 359 353 353 351 344 338 336 335 335 334 333 332 331 330 329 330 330 330 328 326 324
342 343 345 346 346 348 349 350 350 349 349 348 349 347 349 348 346 343 340 342 344 343 341 342 342 340 340 342 345 345 347 351 352 352 354 353 353 351 349 347 357 359 360 358 357 359 363 362 361 363 362 363 363 363 361 345 342 341 339 336 335 334 334 333 332 331 329 328 328 328 328 327 327 324
341 341 343 344 346 346 347 347 347 348 349 348 348 349 348 348 348 347 346 343 343 343 341 342 342 342 341 342 343 344 346 348 351 353 353 352 351 350 349 349 348 359 359 358 355 355 360 362 361 361 362 363 363 362 352 341 340 339 339 337 335 334 333 333 332 331 331 330 329 328 327 327 328 326
339 340 341 342 344 345 346 349 349 348 348 350 349 349 346 347 348 341 342 347 345 344 344 343 342 343 344 342 343 346 346 350 347 351 350 351 351 352 350 350 351 355 356 356 354 352 357 357 357 358 361 363 362 359 341 338 339 338 338 336 334 333 333 333 332 331 330 329 328 327 327 327 327 325
338 339 339 339 341 343 345 346 346 346 346 346 346 346 346 346 346 347 346 346 348 349 346 344 343 346 348 345 346 348 349 348 345 346 349 351 350 350 349 354 355 355 358 354 355 351 353 355 357 356 360 360 360 357 346 334 337 336 335 334 333 333 333 332 332 331 330 329 327 326 325 325 324 322
338 339 339 340 340 341 343 344 345 344 343 344 344 344 343 344 345 345 345 346 346 346 347 347 347 349 350 349 349 349 350 350 351 352 351 352 353 354 353 350 352 354 357 358 354 346 355 354 354 356 358 354 353 351 334 331 335 334 333 332 331 331 331 331 331 330 329 328 327 325 323 322 322 321
338 339 339 339 339 340 341 344 344 345 346 343 339 339 341 342 344 345 347 341 342 347 348 348 348 349 350 347 351 352 351 350 351 353 354 351 350 348 346 344 348 349 353 357 354 350 350 355 354 356 356 353 349 345 345 331 331 331 331 330 330 330 330 329 329 329 328 327 325 323 321 320 319 319
338 338 339 339 339 339 340 340 334 336 343 339 338 338 339 340 341 342 345 341 337 336 334 333 335 336 337 337 335 334 336 345 349 348 345 342 346 344 341 342 344 345 349 352 355 353 350 351 353 353 350 349 349 345 343 339 327 327 328 328 328 328 327 327 327 327 327 325 324 322 320 319 319 320
336 337 339 342 341 341 341 338 332 332 338 337 337 336 337 337 338 340 343 344 345 338 334 333 333 333 334 335 335 336 334 333 342 345 339 342 344 342 343 340 344 347 347 349 354 349 348 352 350 350 348 349 350 348 344 339 332 324 325 326 327 326 326 325 325 325 325 324 323 321 319 319 320 329
335 336 338 340 341 341 341 330 328 329 338 337 336 336 336 335 336 338 342 342 341 342 343 344 344 344 345 347 347 348 343 340 346 346 345 344 342 339 341 343 344 340 343 350 356 347 349 349 347 348 344 343 347 346 344 340 338 338 339 335 332 325 325 324 324 323 323 322 321 320 319 320 325 331
334 335 336 338 335 329 327 324 323 323 325 333 336 336 334 334 334 340 341 342 342 341 342 342 344 344 346 347 348 349 349 349 350 348 345 344 343 341 341 343 342 340 344 350 355 350 353 352 348 350 352 346 341 342 342 341 339 338 338 337 336 327 325 322 320 319 320 320 319 319 320 322 325 330
330 332 334 336 335 326 323 321 320 319 320 326 334 335 335 335 337 340 339 339 342 341 341 343 343 343 344 345 346 346 347 346 347 348 344 345 344 342 341 341 341 342 346 351 346 353 348 348 348 346 347 349 348 341 339 339 337 337 337 338 337 330 330 330 327 326 316 316 316 316 318 321 322 326
329 331 333 335 334 326 323 321 318 316 318 321 329 331 323 324 326 333 336 336 336 337 339 340 340 341 342 342 343 344 345 345 346 345 345 344 345 345 345 343 343 342 345 353 339 354 352 344 349 344 345 344 342 344 338 338 337 337 336 336 338 335 333 332 329 327 325 324 322 320 324 320 322 322
327 330 332 334 333 325 320 316 315 315 316 322 326 319 319 320 322 329 331 333 332 333 335 337 337 339 340 341 341 342 342 345 346 345 345 346 346 345 347 349 350 348 351 354 349 356 353 350 351 348 345 346 343 340 342 340 337 335 333 333 334 332 332 332 329 327 326 325 326 320 319 318 320 322
327 329 330 332 322 317 312 312 314 316 321 324 316 315 317 319 325 329 329 329 331 332 333 334 336 337 340 341 342 343 344 344 346 345 345 346 347 345 345 347 347 349 349 350 350 354 355 353 350 352 352 347 344 340 339 344 341 335 335 333 333 331 331 331 330 328 327 327 326 326 327 326 327 327
329 325 319 316 315 316 315 315 316 317 320 315 314 314 316 327 329 328 329 329 330 330 331 333 335 337 339 340 343 346 348 348 348 346 344 342 343 344 344 344 344 345 347 349 350 351 354 349 350 352 353 352 348 346 345 342 341 337 336 331 330 330 330 330 330 328 327 327 326 328 329 328 328 329
324 320 318 316 316 318 320 326 327 327 329 326 324 323 328 331 330 330 329 329 328 329 331 332 333 335 338 339 343 346 347 345 344 344 343 342 340 341 341 340 341 343 345 347 349 349 352 351 351 350 349 349 349 349 347 345 340 340 335 335 335 332 331 330 329 329 327 326 327 329 330 330 329 330
326 327 328 328 324 323 324 326 329 331 332 333 333 333 333 333 333 333 332 330 329 330 330 332 334 336 338 340 340 340 341 341 343 345 343 343 342 341 340 338 338 340 343 346 349 351 349 345 345 345 345 345 346 348 350 349 344 338 336 337 334 334 330 329 329 328 329 328 329 330 331 331 332 334
326 327 329 327 330 331 330 329 330 330 331 330 330 331 332 332 333 334 335 335 334 333 333 333 334 335 336 335 337 339 340 340 342 344 343 341 340 343 342 338 337 340 342 345 347 349 350 349 346 344 344 346 343 344 348 345 344 341 336 336 336 340 331 329 328 329 330 329 328 327 328 329 328 328
319 320 321 323 326 327 327 326 327 328 328 328 329 329 330 331 331 333 333 331 332 333 333 332 332 333 334 335 337 337 337 339 341 343 343 343 342 344 343 340 340 339 339 342 344 346 347 349 348 345 343 346 348 348 344 338 341 344 339 335 335 334 331 331 330 329 329 327 323 321 321 323 325 325
311 313 315 319 323 325 327 326 326 326 327 326 327 328 329 330 331 332 333 334 334 334 333 334 333 333 334 334 336 337 337 338 340 341 337 341 341 339 339 337 336 337 338 340 342 343 344 345 345 341 342 338 340 347 346 342 341 343 342 338 335 334 331 331 331 329 328 324 320 317 316 317 319 322
312 313 314 318 321 323 325 324 325 326 327 327 328 328 329 330 331 331 331 333 335 334 334 334 334 334 334 334 335 335 336 336 339 341 340 339 339 337 336 336 336 337 338 338 340 343 342 341 335 333 332 333 334 335 325 336 344 340 341 337 337 333 330 330 328 326 324 322 321 316 314 313 314 316
311 315 316 319 321 323 323 324 326 327 327 327 327 327 327 328 331 331 331 334 336 335 333 331 331 332 332 334 334 334 334 335 337 339 340 339 337 337 338 336 335 337 338 338 339 341 339 336 335 333 329 330 332 331 335 322 327 342 335 333 333 331 328 326 324 322 321 320 319 316 312 310 311 312
312 315 318 319 321 322 323 324 325 326 327 327 327 326 326 327 329 331 333 333 335 334 334 333 332 332 333 334 334 333 334 334 335 337 338 340 339 339 337 337 337 337 337 338 339 340 338 335 335 335 332 329 329 330 331 329 325 325 341 332 328 326 323 322 321 319 319 318 315 313 310 307 306 308
314 316 317 319 321 322 323 324 325 325 326 327 327 327 328 330 331 333 335 335 334 334 335 334 334 335 335 335 334 335 336 336 336 336 337 339 338 337 337 336 337 338 339 340 340 340 340 337 335 335 334 330 330 331 328 325 330 330 328 330 325 324 324 321 317 314 313 314 312 312 310 306 306 308
313 316 318 319 321 322 323 323 324 325 325 326 327 329 330 331 332 333 334 334 335 334 335 334 334 335 335 336 335 334 334 335 336 336 337 337 337 336 337 338 339 340 340 339 339 339 338 338 337 337 338 335 332 334 334 327 324 325 323 322 325 323 321 317 313 312 309 306 306 308 308 310 311 313
315 317 318 319 320 321 322 323 324 325 326 327 328 330 330 330 331 332 331 334 334 334 334 333 334 332 334 335 335 335 336 336 336 337 337 337 337 337 338 339 339 340 339 338 337 336 336 336 337 338 339 340 340 333 326 322 320 320 318 315 318 322 319 316 311 307 305 305 304 303 303 306 305 308
320 320 321 321 321 322 321 322 323 324 325 327 328 329 331 330 330 330 330 331 333 333 331 333 333 332 332 333 333 332 332 332 334 335 337 337 336 335 336 335 337 338 338 337 337 334 333 336 340 332 334 327 325 326 323 317 311 311 311 313 313 315 315 314 312 309 306 306 304 302 302 302 303 304
321 321 323 324 323 323 323 323 324 324 326 327 329 330 330 331 331 332 331 332 332 332 332 332 332 333 333 333 333 332 332 331 332 332 333 334 334 333 332 332 332 332 331 331 333 333 332 334 334 331 328 327 327 323 316 311 308 308 309 310 311 311 311 311 311 310 309 307 304 302 301 302 304 302
322 322 323 325 326 327 326 326 326 327 327 328 329 331 331 331 330 330 329 329 328 329 330 331 332 333 333 333 335 334 333 332 333 333 333 333 334 334 334 334 334 335 333 333 332 329 329 330 330 329 328 327 324 319 312 310 309 308 307 307 307 308 309 309 309 308 308 308 308 308 306 304 301 299
320 322 323 324 325 326 327 328 329 329 329 330 331 330 332 330 328 328 328 329 329 330 331 332 334 334 334 335 336 335 334 334 334 334 334 333 333 335 335 336 336 337 336 331 327 327 328 329 329 328 323 319 317 313 311 310 309 309 307 307 307 306 306 308 310 310 309 308 308 309 309 309 309 308
320 321 322 323 325 326 327 329 329 330 330 330 330 331 330 329 328 328 328 329 329 332 333 333 331 331 332 331 331 330 331 333 334 334 334 333 333 333 334 335 335 333 328 327 325 325 326 325 325 323 319 318 316 314 313 313 310 310 308 307 306 307 308 310 308 306 306 306 307 308 309 309 309 310
Wind_Speed
9 7 10 9 9 9 9 8 8 7 5 5 6 5 6 6 7 6 5 5 4 2 5 3 3 6 6 6 6 7 9 11 11 9 10 10 9 12 15 16 17 17 18 18 17 17 17 17 18 19 19 19 18 17 17 18 18 17 18 18 19 17 16 16 14 12 12 12 12 13 12 12 13 12
8 7 8 8 9 8 8 6 4 3 1 7 9 8 7 6 7 5 7 6 4 4 3 4 4 2 4 5 5 6 8 10 11 9 9 9 10 13 14 15 15 16 17 17 17 17 17 17 17 17 17 17 17 17 17 17 18 18 17 18 18 18 15 13 11 11 11 10 10 10 11 11 12 12
8 9 9 8 8 6 7 6 4 8 8 7 6 7 7 8 8 8 8 9 5 5 6 4 5 5 4 3 4 5 7 7 10 10 9 10 13 14 12 15 15 16 16 16 16 16 16 16 16 16 16 17 17 17 17 17 17 16 17 17 17 17 14 11 11 11 11 11 11 11 11 11 12 12
7 8 8 8 7 5 6 8 7 9 8 8 8 7 7 7 7 7 9 10 11 4 5 5 5 5 5 3 5 6 6 6 10 9 9 10 11 9 10 13 16 16 15 15 15 15 16 16 15 16 16 15 16 16 17 16 16 15 16 16 16 14 12 11 11 12 11 11 10 11 11 11 11 11
7 7 8 7 7 7 7 7 7 8 8 8 7 8 8 8 7 7 9 12 12 7 4 6 6 4 3 4 6 7 6 6 7 9 9 9 9 9 8 9 13 15 15 15 15 15 14 15 15 15 15 15 15 15 15 15 15 15 14 14 13 12 12 12 12 12 12 11 11 12 12 11 11 12
6 7 8 9 9 7 8 8 8 8 8 7 7 6 7 8 9 10 10 11 10 10 2 4 4 4 4 5 4 6 6 6 5 7 7 7 8 8 7 7 8 13 14 15 15 15 14 14 14 14 14 15 15 15 15 15 14 13 13 13 13 12 12 12 12 12 12 11 12 12 11 12 13 13
8 8 7 7 7 6 7 7 8 8 8 8 8 9 7 7 9 11 13 11 10 10 7 4 5 4 3 5 5 5 5 5 3 6 7 7 6 7 8 7 7 10 13 14 14 15 14 14 13 14 14 14 14 14 14 14 13 13 12 12 12 12 12 12 13 13 13 12 13 13 12 12 13 13
7 8 8 8 8 7 7 8 8 7 8 8 8 10 9 9 9 8 9 12 11 8 9 5 5 3 4 4 5 4 4 4 4 5 5 4 7 8 7 8 8 8 12 13 14 14 14 14 13 13 13 13 13 13 13 13 13 12 11 11 11 12 12 13 13 14 14 14 14 13 13 13 14 13
8 8 8 9 8 8 9 8 8 8 9 8 8 9 8 9 9 8 8 7 8 9 9 7 5 4 4 4 4 3 4 4 4 4 6 6 6 6 6 5 6 8 11 13 14 13 13 13 13 13 13 12 12 12 12 12 12 12 11 11 11 11 12 12 13 14 14 13 13 12 12 13 13 12
9 8 8 8 8 9 9 9 9 8 9 8 9 10 9 8 8 9 9 7 7 8 8 7 7 5 5 4 5 4 4 5 5 4 5 4 5 5 6 6 5 5 6 5 7 8 9 12 14 13 13 13 13 13 12 12 11 11 11 12 11 11 11 12 13 13 14 13 12 12 12 13 14 13
9 8 8 8 8 9 9 9 9 9 10 8 10 10 10 8 8 8 9 7 7 7 8 7 7 6 5 5 8 5 3 5 5 5 3 5 4 4 6 6 5 5 6 8 8 8 7 9 8 11 13 13 13 12 12 11 11 11 12 12 12 11 12 12 13 13 13 13 12 12 12 13 13 13
9 9 8 8 8 9 9 9 10 9 9 9 10 10 8 8 8 9 8 8 9 8 8 9 8 7 7 6 5 3 2 3 4 5 6 7 6 6 6 8 6 4 5 5 5 6 5 6 8 9 10 11 12 12 11 12 11 12 12 12 12 12 12 12 12 13 13 12 12 11 10 10 12 13
7 7 9 9 9 10 13 16 15 14 12 8 9 9 9 9 9 10 10 8 8 7 9 9 6 6 7 7 7 5 5 7 8 4 7 7 6 5 4 5 5 5 5 5 4 5 5 5 5 4 4 5 9 9 11 8 11 12 11 12 12 12 12 12 11 11 11 11 11 9 8 9 11 12
7 7 6 7 13 15 15 16 17 17 16 16 12 9 9 10 9 9 8 9 8 9 10 9 7 8 8 8 8 9 8 5 4 5 5 7 6 4 5 4 4 5 6 5 5 6 5 6 5 4 5 4 6 4 5 6 8 10 13 12 12 11 10 10 9 9 9 10 11 10 9 10 11 11
8 7 7 6 9 12 13 12 16 16 16 15 16 18 17 15 10 9 10 10 10 8 9 9 8 8 9 9 8 8 8 6 7 7 5 6 5 6 6 7 2 4 7 6 5 6 5 6 6 5 5 5 5 5 6 9 11 11 10 10 10 9 9 9 9 9 9 10 11 10 9 10 10 10
8 8 8 7 6 7 9 9 8 12 15 15 15 16 16 16 18 17 11 11 9 10 9 10 11 9 9 9 7 8 7 7 6 6 6 6 7 7 7 7 8 2 7 6 5 7 3 5 5 5 5 5 5 6 7 10 10 10 10 9 9 9 9 9 9 8 9 10 10 10 9 9 9 9
8 8 8 8 8 7 12 10 9 9 9 12 15 15 16 15 14 13 13 16 13 10 11 10 11 10 9 10 9 7 7 6 9 6 7 6 6 6 7 8 7 1 5 5 5 6 4 5 5 6 6 5 4 5 6 9 9 10 10 9 9 9 9 8 8 8 9 9 10 10 9 9 8 8
7 8 9 8 8 7 7 7 9 10 10 9 9 8 8 8 11 13 14 15 16 15 11 11 12 10 8 9 8 7 7 8 11 9 7 6 7 7 10 6 5 2 5 7 4 3 3 5 4 6 4 3 4 5 6 9 9 9 9 8 8 8 7 6 6 8 9 10 10 10 9 8 8 8
8 8 8 9 9 9 8 7 8 9 10 9 7 9 9 9 10 10 11 11 10 9 8 10 12 12 11 12 10 8 7 9 9 9 10 8 8 5 0 0 2 3 6 6 6 8 2 4 5 5 3 4 5 4 3 5 7 7 7 7 7 7 7 7 8 9 10 11 10 9 9 8 8 8
6 7 8 10 9 10 10 11 14 14 9 8 10 11 9 10 9 9 9 12 12 11 10 9 10 9 10 11 12 10 9 9 9 9 5 1 3 5 7 10 6 6 6 8 7 4 4 4 5 3 3 4 5 4 4 4 6 7 7 7 7 7 7 7 9 10 11 10 10 10 10 9 9 9
7 7 8 9 9 10 9 11 11 12 14 9 10 10 10 9 9 9 9 11 12 13 15 16 16 17 16 15 15 13 15 13 9 8 8 11 9 8 10 10 9 10 5 8 8 5 4 5 5 4 4 5 6 5 5 4 5 6 6 6 6 7 7 8 9 10 10 10 11 11 11 11 10 13
8 9 14 12 8 8 9 10 11 12 12 10 10 9 10 9 9 10 8 7 7 10 12 13 15 16 16 16 17 16 14 15 12 10 11 12 8 9 9 11 10 8 6 7 9 7 7 4 6 4 2 4 4 5 5 5 4 5 5 5 6 6 6 8 9 10 11 11 12 12 13 13 13 9
7 8 9 13 11 9 9 11 10 9 9 9 10 10 10 11 11 10 9 7 8 9 10 10 10 11 13 12 11 12 16 17 17 13 14 10 10 12 12 12 9 10 9 8 12 9 6 7 7 7 5 5 4 3 5 6 5 5 4 4 4 5 6 8 9 10 11 12 12 14 16 17 15 8
7 7 7 9 11 11 12 12 12 11 10 9 8 9 9 10 12 9 8 9 9 11 10 10 9 10 9 9 9 8 10 12 14 13 13 12 10 11 14 13 14 13 6 6 14 9 5 7 8 9 6 4 5 4 5 6 5 5 5 5 4 5 5 6 5 9 12 12 13 14 17 18 15 10
8 8 8 7 9 12 12 12 13 13 13 11 9 10 10 10 10 10 9 10 15 12 12 10 10 9 9 8 9 9 9 9 9 10 12 13 13 13 14 12 13 12 9 7 16 9 7 9 8 9 8 6 2 4 3 4 4 5 6 5 5 5 5 5 5 5 7 11 13 16 17 16 16 14
7 7 8 8 9 12 12 13 13 14 13 12 8 9 12 12 11 9 8 9 9 9 8 10 10 10 10 9 8 9 9 9 10 11 12 13 13 13 13 13 12 10 10 7 17 11 6 8 9 11 10 10 5 3 4 4 5 6 5 5 5 6 6 6 5 6 6 6 7 11 14 15 14 18
8 8 8 9 14 13 13 12 12 12 11 9 7 11 11 11 11 10 7 8 10 10 10 10 10 10 9 9 10 9 10 10 10 9 9 12 12 13 13 14 13 11 7 4 11 10 10 8 9 10 11 11 9 6 5 6 5 6 5 6 5 5 5 5 6 6 7 7 6 10 8 8 10 11
8 8 9 9 13 13 13 13 13 12 11 9 10 10 11 12 13 9 9 9 10 10 10 12 11 10 9 9 10 10 10 10 8 9 10 10 11 11 9 11 12 11 8 7 8 10 10 9 9 9 9 11 11 10 9 7 3 8 8 6 5 5 6 6 6 6 7 8 8 7 7 7 6 8
9 11 13 15 15 15 15 15 14 12 12 13 13 14 14 13 8 10 9 9 9 10 10 10 11 10 11 10 9 8 7 8 7 8 7 8 10 10 12 13 10 10 9 10 9 9 11 12 9 9 9 7 9 10 8 8 9 8 8 8 5 7 7 6 7 8 8 8 9 10 11 10 9 7
16 15 14 14 15 14 14 12 9 8 8 11 13 13 14 9 9 10 11 10 10 10 9 10 11 10 10 9 7 8 8 7 8 8 8 7 8 8 8 9 11 11 11 12 11 11 10 8 6 8 9 8 8 9 10 8 8 7 9 10 6 5 6 7 8 8 10 9 8 7 6 9 11 11
9 11 11 10 12 13 15 15 15 14 14 12 11 9 10 10 10 9 9 10 10 10 10 9 10 10 9 8 8 9 8 10 10 9 8 7 7 8 9 10 11 9 10 13 12 12 8 7 8 6 9 10 10 10 9 9 8 8 9 8 9 8 9 9 8 9 8 8 7 6 5 6 8 6
9 9 11 11 9 9 9 9 9 8 9 9 9 9 9 10 10 11 14 15 10 10 9 9 9 8 8 8 8 8 9 9 9 7 8 8 9 8 7 9 9 9 9 10 12 14 14 12 11 9 11 11 11 10 6 7 8 8 9 10 10 6 8 11 10 8 9 9 8 8 7 7 7 6
9 8 9 9 9 9 11 10 9 8 8 9 8 9 9 9 9 8 8 9 9 9 9 10 9 9 8 9 9 9 9 9 9 8 9 9 10 9 9 11 10 9 10 11 11 11 11 11 11 12 12 11 10 8 8 7 9 8 9 10 10 9 8 10 10 9 9 8 9 9 8 7 6 8
9 9 9 9 9 8 8 9 9 10 9 9 9 8 9 9 8 7 7 8 9 8 9 10 10 10 9 10 9 9 10 9 7 8 10 9 8 10 9 8 7 7 7 7 8 9 9 10 8 8 8 5 5 9 10 10 9 8 8 9 11 9 8 9 9 12 13 13 14 10 8 5 5 4
7 8 8 8 8 7 7 8 9 9 8 9 9 10 9 8 9 9 8 7 7 8 10 9 8 9 9 10 10 12 10 11 8 7 8 9 8 8 8 5 7 7 8 9 9 8 7 8 5 6 4 3 3 2 2 2 8 7 7 7 8 8 7 6 6 6 7 5 6 12 8 8 8 6
8 7 7 8 8 8 8 9 10 9 9 9 10 11 9 8 8 9 8 7 7 7 8 10 10 10 10 10 10 11 11 9 9 9 7 9 8 9 9 10 10 10 9 9 9 6 5 6 6 6 5 5 6 6 8 1 1 5 8 5 6 8 8 9 9 9 9 7 6 6 10 8 8 7
8 7 8 9 8 7 8 9 9 9 10 9 10 11 10 10 9 9 9 9 8 9 9 8 9 10 10 10 10 9 8 8 8 8 9 9 8 9 9 7 8 8 8 9 8 7 7 8 7 7 7 6 6 9 4 3 2 4 6 8 8 11 12 10 11 10 9 10 9 9 10 11 10 7
8 8 9 9 9 8 8 9 9 11 10 10 10 10 9 9 9 9 8 8 11 10 9 9 9 9 9 9 9 8 8 9 9 8 9 9 9 8 8 8 8 7 8 7 7 7 8 8 7 7 8 8 9 8 6 2 4 2 3 12 12 11 11 13 13 12 10 9 10 7 8 12 10 10
7 8 8 8 8 8 8 9 9 9 10 10 10 8 10 10 10 9 8 9 9 9 8 8 8 8 9 8 8 8 8 8 8 9 8 8 9 10 10 9 8 8 8 8 8 8 6 6 7 9 10 9 11 8 7 8 3 4 5 6 15 12 12 14 14 12 13 14 12 12 12 11 14 16
8 8 9 9 9 8 9 9 9 9 9 9 9 9 9 9 8 8 8 8 9 9 8 8 8 8 8 9 10 9 9 10 10 8 8 9 9 10 10 8 9 8 9 10 9 7 7 8 9 10 10 7 4 8 11 9 7 8 11 13 6 18 15 14 16 16 12 12 14 15 13 9 11 5
7 8 9 9 8 9 10 9 8 8 9 8 8 9 9 8 8 8 10 11 10 8 7 7 8 8 9 9 9 9 9 8 8 8 8 9 9 9 10 9 8 9 9 10 9 8 9 9 6 9 9 9 12 12 12 10 9 7 10 12 19 16 14 19 20 18 16 13 14 17 14 11 11 9
8 9 8 8 8 9 10 9 8 7 7 7 6 7 7 7 8 12 11 13 9 7 6 6 6 6 7 7 8 7 8 8 7 8 8 7 6 6 7 6 5 3 3 4 4 4 4 6 9 9 9 10 10 10 8 12 12 9 9 11 11 18 22 21 17 15 15 16 19 17 13 9 8 11
8 8 8 8 8 8 9 9 8 7 7 7 8 8 7 7 7 7 6 5 4 7 7 8 7 8 8 8 7 8 8 8 8 8 8 8 8 8 7 7 7 5 5 4 4 6 5 6 7 9 8 7 5 11 11 9 11 13 14 13 12 13 15 21 23 22 20 19 16 10 7 16 16 10
8 8 8 8 8 8 7 7 7 7 7 7 7 8 8 8 7 6 4 3 4 6 8 8 7 7 8 7 7 8 8 8 8 8 9 8 8 8 8 7 7 7 6 6 7 8 8 7 7 9 10 9 11 14 13 13 10 10 12 13 13 15 13 13 14 16 18 20 20 19 22 21 18 20
8 8 8 8 8 8 7 7 6 6 7 7 7 6 5 6 6 6 4 3 5 6 6 5 4 3 4 4 4 7 8 8 8 8 8 8 8 8 8 8 7 6 7 8 9 9 8 9 8 9 11 10 11 14 12 13 14 13 13 16 15 14 11 11 13 13 12 11 17 25 24 27 25 21
Wind_Direction
248 240 249 248 250 247 249 251 253 259 277 320 320 281 241 217 243 253 262 243 242 238 196 238 267 213 220 225 221 220 223 230 225 223 226 230 229 229 225 228 229 232 234 237 238 240 240 242 243 245 247 247 245 247 248 250 254 250 251 252 251 250 254 258 259 255 248 245 241 242 241 243 245 245
245 243 252 249 259 258 260 256 270 323 250 214 223 240 256 273 247 231 248 263 199 247 211 201 256 237 228 228 228 225 230 233 223 228 224 228 231 227 226 228 230 231 232 233 235 237 239 241 242 243 244 245 246 247 247 248 251 256 255 254 254 255 256 261 257 252 247 241 237 236 238 240 242 245
247 251 255 257 262 275 292 287 229 253 253 251 227 232 234 222 244 263 253 266 256 210 245 229 222 254 257 222 240 237 237 232 221 228 226 227 231 229 229 228 230 230 230 231 231 233 235 235 237 240 242 245 247 248 249 247 248 249 252 255 254 256 251 245 245 246 243 239 239 239 241 243 244 246
244 244 250 255 258 242 229 251 236 237 235 229 233 238 235 238 228 235 261 255 262 221 236 248 259 236 255 221 235 240 239 236 216 226 226 228 229 228 234 225 226 228 228 228 230 230 232 234 235 238 239 242 244 244 248 248 246 243 243 246 250 251 247 239 237 239 238 236 234 236 239 243 245 249
247 247 254 250 246 238 231 236 239 239 238 229 222 215 224 237 232 228 237 253 264 257 228 253 253 255 238 247 217 240 241 233 226 223 228 226 225 225 227 229 221 223 225 226 227 229 230 232 234 236 239 243 246 248 248 248 247 245 243 243 243 243 239 236 236 236 237 237 235 235 236 238 240 243
266 261 260 265 267 256 253 258 259 250 251 253 248 220 209 218 229 221 234 247 254 264 198 247 246 260 212 254 203 221 240 241 221 223 223 222 219 224 226 225 229 215 221 223 226 228 229 231 232 235 237 241 245 246 247 247 247 246 243 242 241 238 234 235 235 237 238 237 237 237 232 231 233 234
266 265 265 271 272 270 268 261 258 261 262 261 255 251 237 222 221 218 216 233 251 259 261 236 252 236 221 226 245 221 232 252 230 231 230 222 217 224 225 227 232 218 217 220 223 225 228 230 232 233 235 238 241 244 246 247 247 244 242 241 238 234 235 235 235 236 235 234 236 238 234 232 235 236
262 264 268 272 274 271 268 265 263 259 258 257 260 259 254 251 248 234 218 209 235 255 264 245 245 241 258 250 249 257 241 239 227 226 242 232 230 226 222 227 232 222 217 221 221 222 224 226 229 231 234 236 238 240 242 245 246 245 243 240 237 233 233 235 237 237 237 237 237 238 239 239 240 238
265 266 261 268 269 268 265 262 262 261 258 259 260 262 259 258 256 254 250 245 229 248 256 262 252 253 248 257 269 239 248 244 233 228 234 228 231 232 231 231 234 239 223 223 224 223 221 221 223 227 229 231 234 235 237 239 241 242 242 241 237 235 234 235 238 240 241 241 241 244 247 250 249 244
261 263 261 260 259 262 265 266 263 258 258 259 259 260 260 257 260 260 257 250 251 248 254 254 263 239 245 256 248 238 225 240 249 243 241 245 236 233 234 228 225 222 221 218 222 224 226 221 219 220 222 225 227 230 232 235 235 236 238 239 239 236 234 236 239 242 244 243 240 240 243 248 251 248
261 259 257 259 258 258 260 264 265 263 261 257 258 258 260 257 257 258 256 248 243 245 252 252 247 255 242 232 260 253 233 239 232 244 254 252 225 219 226 240 222 218 226 228 222 225 215 211 213 217 222 223 224 226 228 228 227 229 230 233 233 233 233 234 237 241 244 245 241 238 240 246 252 252
263 261 256 253 254 252 257 258 258 254 255 253 255 257 254 255 256 257 257 254 249 246 247 251 252 244 252 246 232 243 237 240 240 221 226 239 236 220 214 224 225 203 217 225 217 219 220 217 217 218 219 223 224 224 226 226 225 224 226 228 229 229 230 232 236 240 245 247 246 240 239 246 255 260
258 260 261 259 255 252 250 252 253 254 255 258 264 256 248 248 250 256 260 259 257 250 250 250 234 242 241 242 242 229 217 221 234 213 215 234 238 240 242 236 222 217 216 221 223 216 197 204 203 193 201 208 209 222 218 225 220 223 222 224 226 226 226 229 232 238 244 250 253 252 235 229 240 251
264 256 252 254 256 256 258 264 268 268 263 254 250 262 266 260 258 257 258 258 255 255 256 252 243 238 242 243 238 244 236 225 230 237 213 228 237 234 248 267 225 195 213 219 223 223 191 204 210 193 216 205 194 206 191 212 210 209 215 220 224 224 224 225 228 231 238 244 248 244 233 221 217 227
270 265 256 252 260 265 270 267 265 266 268 263 261 256 254 256 253 253 257 256 253 251 252 250 244 245 248 243 241 244 249 228 217 221 210 224 228 225 226 247 260 182 188 204 224 243 190 189 211 203 211 204 198 206 213 212 209 213 208 214 219 219 218 220 220 220 223 233 238 236 230 228 217 212
264 265 265 261 255 259 257 260 261 263 265 264 258 259 261 263 265 263 256 260 264 252 249 249 244 241 242 249 239 245 245 244 237 228 219 216 217 221 221 225 239 199 187 186 201 238 133 187 211 220 213 198 202 210 217 208 210 209 209 207 208 210 214 214 212 207 212 221 229 233 225 224 226 219
259 261 263 267 263 256 258 259 261 264 266 262 262 265 273 273 273 274 270 261 254 258 255 253 253 240 241 245 241 235 248 247 247 227 227 220 223 225 228 227 228 161 191 209 211 236 174 179 202 224 222 197 192 203 209 209 207 208 208 206 202 205 208 208 198 192 197 204 213 220 222 219 221 216
258 256 260 263 264 258 254 255 259 262 262 266 268 266 263 266 272 272 265 266 266 263 258 257 257 249 234 246 246 234 230 239 248 244 232 219 221 216 226 226 216 160 172 192 183 241 203 188 197 223 217 170 189 208 195 198 207 207 206 199 195 196 205 203 188 181 186 195 201 209 213 211 204 197
257 256 256 256 258 262 259 251 252 257 261 262 263 267 266 263 263 264 266 265 263 260 256 257 260 263 259 258 252 242 227 238 246 246 249 237 224 230 50 310 225 197 196 190 182 232 184 169 198 222 197 189 204 186 155 188 198 201 193 186 182 191 200 195 182 179 187 194 192 188 191 184 177 165
254 255 254 259 261 260 260 259 260 263 267 270 267 266 263 262 259 258 250 250 254 256 253 252 255 258 259 257 254 242 238 241 241 249 254 278 215 201 220 233 215 217 198 194 188 210 212 165 195 205 179 186 206 170 181 167 190 191 190 186 185 192 198 191 178 179 186 186 173 170 163 161 158 148
264 260 254 255 258 262 261 260 260 263 270 266 267 267 267 266 263 263 263 249 245 249 252 254 256 257 257 253 251 245 239 240 236 243 240 235 217 219 228 233 227 228 179 203 205 201 219 177 188 192 198 201 207 196 190 173 182 187 191 187 181 184 182 176 171 173 174 167 162 156 149 148 145 129
271 264 261 258 255 256 261 256 254 257 266 267 266 264 265 270 268 264 256 262 257 237 242 249 253 256 257 253 253 250 244 241 236 232 232 232 217 228 226 237 226 233 205 200 193 199 219 151 182 187 179 200 221 195 186 176 172 180 185 176 166 175 175 167 162 163 164 161 155 148 142 139 134 134
273 271 264 260 257 256 259 259 263 262 266 274 269 266 265 264 263 263 265 260 267 265 264 260 257 256 252 251 247 248 243 238 241 233 235 227 218 224 228 230 233 240 237 197 174 202 205 179 193 174 168 222 208 178 180 181 188 188 185 164 158 174 172 170 164 156 158 159 157 150 147 147 142 129
276 271 267 261 254 253 256 262 264 264 259 255 265 274 268 265 263 266 269 263 259 263 258 258 255 257 253 253 245 242 245 246 237 230 226 225 217 222 228 228 224 226 217 168 174 196 191 184 190 194 191 183 214 192 174 191 190 189 175 169 168 169 165 148 152 157 156 161 162 159 158 159 147 134
279 277 273 264 260 254 248 248 252 253 252 248 249 251 254 255 268 286 285 284 281 277 274 267 257 252 247 245 246 240 240 239 240 233 226 223 216 217 226 229 229 234 229 177 181 190 189 187 194 187 209 218 182 151 181 191 184 191 189 183 178 162 165 164 150 149 153 160 165 167 166 164 159 144
273 268 269 270 263 260 253 248 244 245 249 251 247 251 254 265 276 277 280 285 285 277 268 259 258 257 253 250 243 242 237 234 230 229 228 228 222 222 226 229 231 232 226 186 184 194 179 194 186 185 196 201 212 159 149 200 197 191 181 192 192 176 173 164 159 155 154 161 164 173 175 173 171 152
273 270 268 269 272 270 265 260 258 258 258 258 247 244 251 259 266 276 274 269 270 268 264 260 257 254 251 249 246 238 238 232 230 228 227 228 224 226 230 231 238 245 257 174 195 202 196 197 182 183 193 199 200 183 197 182 204 172 186 196 183 161 170 165 167 166 161 159 164 171 160 156 151 140
270 268 267 265 267 269 269 267 263 262 260 255 253 253 256 263 270 270 263 258 256 259 259 258 255 249 244 243 244 242 237 235 222 223 223 223 227 229 233 237 237 231 231 228 217 220 205 198 188 195 184 184 198 194 207 209 157 176 193 171 162 170 171 172 168 163 165 156 154 154 154 148 138 119
266 262 262 265 269 271 269 266 269 269 260 250 249 248 247 249 252 256 251 252 254 254 251 251 254 251 250 250 253 262 264 257 238 229 229 204 221 221 224 235 238 243 239 224 215 219 217 211 208 195 197 190 193 202 192 201 190 193 179 158 193 198 184 176 170 165 161 161 165 167 168 160 156 146
284 278 271 268 269 269 267 266 258 245 246 243 240 244 246 239 245 249 250 252 250 251 248 248 251 251 253 253 256 263 261 250 234 224 219 201 205 210 220 229 237 233 229 237 231 228 223 224 234 216 206 215 214 202 198 192 200 184 170 186 172 124 179 173 172 165 160 163 166 180 176 158 150 150
276 273 269 266 263 259 258 254 254 256 261 266 270 270 264 257 253 248 245 247 251 253 254 253 252 252 253 256 259 256 253 249 243 223 225 215 204 200 215 226 231 222 220 224 225 224 210 214 228 236 229 218 212 218 200 194 195 172 189 183 158 187 182 171 167 164 162 152 147 132 138 146 141 145
278 278 273 265 261 263 261 251 244 243 249 260 265 259 257 256 253 250 253 257 247 243 240 250 256 254 244 241 241 244 244 244 239 221 216 216 230 219 199 217 221 218 222 216 221 223 225 209 200 196 222 222 212 210 194 194 200 181 183 188 192 189 149 168 165 164 157 141 139 138 138 154 135 107
297 287 274 267 265 256 258 259 257 255 261 266 259 256 259 256 253 246 243 246 249 251 247 245 243 245 242 245 241 240 240 235 229 215 223 218 222 224 210 215 217 215 214 213 211 216 208 212 202 193 211 224 221 200 193 202 210 198 187 185 189 189 169 171 164 153 146 139 128 113 119 108 105 117
280 268 263 254 246 246 246 252 251 254 254 260 260 255 251 253 257 256 252 251 255 249 243 244 243 242 240 244 238 233 237 238 228 218 216 223 216 224 205 210 209 215 219 223 218 212 207 212 205 210 219 207 207 207 197 202 206 198 190 175 184 190 172 167 164 164 165 159 144 126 113 80 49 71
245 254 254 255 253 247 245 248 253 251 247 249 252 255 257 254 250 253 254 252 253 246 244 239 241 244 241 242 244 245 243 240 229 226 216 222 221 223 230 230 225 213 210 222 225 221 193 188 155 123 112 103 74 10 7 213 209 191 176 178 178 164 135 111 102 80 70 42 113 119 104 96 90 80
257 242 249 252 250 249 245 249 252 247 244 246 250 256 255 249 248 249 248 247 250 248 244 238 239 244 245 244 242 240 242 239 237 234 223 218 216 218 215 215 218 220 212 216 218 198 185 189 156 157 147 163 171 195 207 47 74 161 151 144 140 120 111 110 103 109 103 94 51 79 95 98 103 109
252 251 250 255 252 244 245 249 247 247 249 247 250 253 252 255 252 247 244 237 242 242 245 240 238 234 236 238 239 236 233 231 234 231 233 229 223 217 212 214 212 207 205 215 213 198 172 186 186 182 167 164 182 204 181 94 245 313 158 139 131 128 127 117 115 92 82 93 95 97 103 96 82 59
247 245 252 251 253 252 251 252 251 251 250 248 250 249 245 247 248 248 246 243 244 245 239 240 246 241 236 232 235 238 240 236 236 233 231 232 226 216 212 208 213 210 209 203 196 196 179 184 186 189 180 179 195 200 172 115 151 235 189 140 132 135 122 120 109 107 97 85 86 71 88 98 104 102
244 247 250 255 254 252 249 250 248 247 246 245 243 240 245 246 253 255 249 246 250 245 243 246 248 249 244 238 233 233 238 235 232 235 235 234 234 233 228 221 218 208 203 208 199 200 184 178 187 199 197 192 202 205 159 137 101 48 26 110 134 126 136 120 115 107 112 107 97 95 86 88 86 82
231 234 243 247 250 249 251 252 251 253 254 251 250 253 260 270 272 271 266 263 256 244 244 247 256 256 252 250 251 250 245 245 243 236 226 228 230 231 233 225 223 212 206 208 203 197 159 195 196 196 197 192 123 91 99 92 85 54 60 26 80 142 138 127 124 125 108 114 121 107 106 100 88 67
265 260 254 247 248 252 253 250 247 248 252 255 261 263 263 266 271 271 272 272 268 266 263 261 257 256 258 255 251 247 246 242 243 242 236 225 219 216 222 220 224 214 211 214 203 191 200 204 177 116 102 108 115 107 94 89 72 78 58 60 51 66 105 126 134 132 127 139 120 114 115 112 118 114
265 268 265 253 245 245 247 243 241 244 249 252 252 258 260 267 268 277 280 283 287 284 261 252 249 249 247 249 250 239 238 235 235 235 228 229 228 217 221 217 222 202 180 214 198 165 110 105 115 112 125 131 136 121 118 121 120 93 87 75 64 69 72 68 67 90 118 138 133 120 99 86 102 109
288 286 284 272 262 252 247 243 242 242 244 245 243 245 248 251 247 252 235 222 234 259 258 253 239 241 246 239 237 235 233 230 225 228 227 223 226 231 218 207 211 204 189 174 126 127 122 115 118 121 125 118 101 114 116 115 112 113 101 89 89 90 78 78 81 76 67 55 45 56 116 141 146 141
285 288 286 285 279 271 264 255 249 247 250 253 261 262 259 251 247 243 248 242 247 250 242 246 249 245 247 248 248 249 245 237 226 225 220 217 209 219 222 210 195 199 179 142 128 131 133 128 124 124 116 116 117 112 116 109 94 102 106 106 105 98 97 100 91 76 64 59 66 71 74 60 66 98
287 285 283 281 278 274 266 255 246 249 253 255 255 255 244 239 254 261 268 280 267 261 252 243 239 245 243 244 242 252 250 243 237 229 216 211 206 205 208 208 192 170 145 136 123 123 121 111 100 91 97 104 108 112 108 111 114 109 108 112 110 108 109 106 94 78 67 60 83 91 94 101 105 105